FW3933 Weather Reports


Display with metric or nautical units.
time (UTC)temp
F
wind
direction
speed
MPH
gust
MPH
rain 1hr
in
rain 24hr
in
rain mn
in
humidity
%
barometer
mb
20260905163031 59 293 0.0 0.0 0.00 0.00 0.00 78 1020.1
20260905162530 59 270 0.0 0.0 0.00 0.00 0.00 79 1020.1
20260905162028 59 270 0.0 0.0 0.00 0.00 0.00 80 1020.1
20260905161030 58 273 0.0 4.0 0.00 0.00 0.00 81 1020.3
20260905160531 58 247 0.0 0.0 0.00 0.00 0.00 81 1020.3
20260905160037 58 217 0.0 0.0 0.00 0.00 0.00 81 1020.3
20260905155526 57 309 0.0 0.0 0.00 0.00 0.00 83 1020.2
20260905155023 56 321 0.0 0.0 0.00 0.00 0.00 84 1020.3
20260905154544 56 299 0.0 5.0 0.00 0.00 0.00 84 1020.3
20260905154142 56 269 0.0 5.0 0.00 0.00 0.00 84 1020.3
20260905153522 56 294 0.0 2.0 0.00 0.00 0.00 84 1020.2
20260905153026 56 294 0.0 0.0 0.00 0.00 0.00 84 1020.2
20260905152520 56 291 0.0 3.0 0.00 0.00 0.00 86 1020.2
20260905152020 55 294 0.0 3.0 0.00 0.00 0.00 86 1020.1
20260905151024 55 286 0.0 2.0 0.00 0.00 0.00 86 1020.2
20260905150520 55 255 0.0 0.0 0.00 0.00 0.00 87 1020.1
20260905150024 55 351 0.0 0.0 0.00 0.00 0.00 87 1020.0
20260905145520 55 317 0.0 0.0 0.00 0.00 0.00 87 1020.0
20260905145023 54 294 0.0 0.0 0.00 0.00 0.00 87 1020.0
20260905144534 54 294 0.0 0.0 0.00 0.00 0.00 88 1020.0
20260905144020 54 294 0.0 0.0 0.00 0.00 0.00 88 1020.0
20260905143520 54 294 0.0 0.0 0.00 0.00 0.00 89 1020.0
20260905143020 53 294 0.0 0.0 0.00 0.00 0.00 90 1019.9
20260905142519 53 294 0.0 0.0 0.00 0.00 0.00 90 1019.9
20260905142026 53 294 0.0 0.0 0.00 0.00 0.00 90 1019.9
20260905141022 52 294 0.0 0.0 0.00 0.00 0.00 90 1019.8
20260905140522 52 294 0.0 0.0 0.00 0.00 0.00 90 1019.8
20260905140027 52 294 0.0 0.0 0.00 0.00 0.00 90 1019.8
20260905135522 52 294 0.0 0.0 0.00 0.00 0.00 90 1019.8
20260905135022 52 294 0.0 0.0 0.00 0.00 0.00 90 1019.9
20260905134521 52 294 0.0 0.0 0.00 0.00 0.00 89 1019.9
20260905134021 52 294 0.0 0.0 0.00 0.00 0.00 89 1019.8
20260905133524 52 294 0.0 0.0 0.00 0.00 0.00 89 1019.8
20260905133020 52 294 0.0 0.0 0.00 0.00 0.00 89 1019.8
20260905132520 53 294 0.0 0.0 0.00 0.00 0.00 88 1019.7
20260905132020 53 294 0.0 0.0 0.00 0.00 0.00 88 1019.7
20260905131013 53 294 0.0 5.0 0.00 0.00 0.00 87 1019.7
20260905130515 53 294 0.0 5.0 0.00 0.00 0.00 87 1019.7
20260905130016 53 303 0.0 5.0 0.00 0.00 0.00 87 1019.7
20260905125513 53 303 0.0 5.0 0.00 0.00 0.00 87 1019.8
20260905125012 53 316 0.0 5.0 0.00 0.00 0.00 87 1019.7
20260905124515 53 283 0.0 4.0 0.00 0.00 0.00 87 1019.6
20260905124011 53 283 0.0 4.0 0.00 0.00 0.00 87 1019.6
20260905123512 53 295 0.0 0.0 0.00 0.00 0.00 87 1019.6
20260905123011 53 295 0.0 6.0 0.00 0.00 0.00 87 1019.6
20260905122516 53 294 0.0 6.0 0.00 0.00 0.00 87 1019.7
20260905122011 53 302 0.0 4.0 0.00 0.00 0.00 87 1019.6
20260905121012 53 312 0.0 5.0 0.00 0.00 0.00 87 1019.6
20260905120512 53 284 0.0 4.0 0.00 0.00 0.00 87 1019.6
20260905120011 53 244 0.0 1.0 0.00 0.00 0.00 87 1019.6
20260905115513 53 294 0.0 3.0 0.00 0.00 0.00 87 1019.6
20260905115011 53 294 0.0 4.0 0.00 0.00 0.00 87 1019.5
20260905114511 53 294 0.0 5.0 0.00 0.00 0.00 86 1019.6
20260905114010 53 295 0.0 5.0 0.00 0.00 0.00 86 1019.6
20260905113513 53 279 0.0 6.0 0.00 0.00 0.00 86 1019.6
20260905113011 54 245 0.0 6.0 0.00 0.00 0.00 85 1019.6
20260905112511 54 279 0.0 6.0 0.00 0.00 0.00 85 1019.6
20260905112008 54 288 0.0 6.0 0.00 0.00 0.00 85 1019.7
20260905111016 54 288 0.0 5.0 0.00 0.00 0.00 85 1019.7
20260905110517 54 242 0.0 5.0 0.00 0.00 0.00 85 1019.8
20260905110015 54 239 0.0 5.0 0.00 0.00 0.00 85 1019.7
20260905105515 54 265 0.0 5.0 0.00 0.00 0.00 85 1019.7
20260905105017 54 288 0.0 5.0 0.00 0.00 0.00 85 1019.7
20260905104523 54 305 0.0 5.0 0.00 0.00 0.00 86 1019.8
20260905104025 54 304 0.0 4.0 0.00 0.00 0.00 86 1019.7
20260905103513 54 305 0.0 3.0 0.00 0.00 0.00 86 1019.8
20260905103012 55 294 0.0 5.0 0.00 0.00 0.00 85 1019.8
20260905102511 54 299 0.0 5.0 0.00 0.00 0.00 85 1019.9
20260905102012 54 284 0.0 2.0 0.00 0.00 0.00 85 1020.0
20260905101010 54 290 0.0 4.0 0.00 0.00 0.00 85 1020.0
20260905100516 55 269 0.0 4.0 0.00 0.00 0.00 85 1019.9
20260905100009 55 266 0.0 0.0 0.00 0.00 0.00 84 1019.9
20260905095508 55 271 0.0 0.0 0.00 0.00 0.00 84 1020.0
20260905095007 55 263 0.0 0.0 0.00 0.00 0.00 84 1020.0
20260905094508 55 265 0.0 4.0 0.00 0.00 0.00 84 1020.0
20260905094007 55 259 0.0 4.0 0.00 0.00 0.00 83 1020.0
20260905093507 55 200 0.0 3.0 0.00 0.00 0.00 83 1020.0
20260905093007 55 288 0.0 3.0 0.00 0.00 0.00 83 1020.0
20260905092507 55 290 0.0 4.0 0.00 0.00 0.00 83 1020.0
20260905092008 55 294 0.0 7.0 0.00 0.00 0.00 82 1020.0
20260905091100 55 236 0.0 6.0 0.00 0.00 0.00 81 1020.0
20260905090559 55 235 0.0 6.0 0.00 0.00 0.00 81 1020.0
20260905085600 56 287 1.0 8.0 0.00 0.00 0.00 81 1020.2
20260905085501 56 259 0.0 7.0 0.00 0.00 0.00 81 1020.2
20260905085102 56 288 1.0 7.0 0.00 0.00 0.00 81 1020.2
20260905084559 56 275 1.0 8.0 0.00 0.00 0.00 81 1020.1
20260905084058 56 213 1.0 8.0 0.00 0.00 0.00 80 1020.1
20260905083558 56 265 0.0 7.0 0.00 0.00 0.00 80 1020.1
20260905083058 56 311 1.0 7.0 0.00 0.00 0.00 80 1020.1
20260905082557 56 204 1.0 7.0 0.00 0.00 0.00 79 1020.1
20260905082058 56 288 1.0 7.0 0.00 0.00 0.00 79 1020.0
20260905081658 56 203 1.0 9.0 0.00 0.00 0.00 79 1020.0
20260905081055 56 190 1.0 9.0 0.00 0.00 0.00 78 1020.1
20260905080554 56 277 1.0 8.0 0.00 0.00 0.00 78 1020.0
20260905080059 56 250 0.0 8.0 0.00 0.00 0.00 78 1020.1
20260905075557 56 284 1.0 5.0 0.00 0.00 0.00 78 1020.1
20260905075054 56 233 0.0 7.0 0.00 0.00 0.00 77 1020.1
20260905074556 56 199 1.0 7.0 0.00 0.00 0.00 77 1020.0
20260905074054 56 253 1.0 6.0 0.00 0.00 0.00 76 1020.0
20260905073554 57 257 0.0 9.0 0.00 0.00 0.00 76 1020.0
20260905073059 57 272 0.0 9.0 0.00 0.00 0.00 76 1019.9
20260905072554 57 207 0.0 5.0 0.00 0.00 0.00 76 1019.9
20260905072053 57 280 0.0 6.0 0.00 0.00 0.00 76 1019.9
20260905071655 57 287 2.0 14.0 0.00 0.00 0.00 76 1019.9
20260905071059 57 241 0.0 14.0 0.00 0.00 0.00 76 1019.7
20260905070556 57 235 3.0 8.0 0.00 0.00 0.00 75 1019.7
20260905070056 57 211 2.0 8.0 0.00 0.00 0.00 75 1019.8
20260905065600 57 242 1.0 7.0 0.00 0.00 0.00 74 1019.9
20260905065056 57 257 0.0 7.0 0.00 0.00 0.00 75 1019.9
20260905064559 57 283 1.0 7.0 0.00 0.00 0.00 74 1019.9
20260905064056 57 231 1.0 7.0 0.00 0.00 0.00 74 1019.9
20260905063556 57 247 1.0 8.0 0.00 0.00 0.00 74 1019.9
20260905063107 57 236 2.0 8.0 0.00 0.00 0.00 74 1019.8
20260905062555 57 213 1.0 8.0 0.00 0.00 0.00 74 1019.9
20260905062055 57 226 1.0 8.0 0.00 0.00 0.00 74 1019.8
20260905061657 57 253 0.0 4.0 0.00 0.00 0.00 74 1019.8
20260905061055 57 244 0.0 5.0 0.00 0.00 0.00 73 1019.8
20260905060553 57 251 0.0 6.0 0.00 0.00 0.00 74 1019.8
20260905060054 57 254 1.0 7.0 0.00 0.00 0.00 73 1019.8
20260905055553 58 258 0.0 7.0 0.00 0.00 0.00 74 1019.8
20260905055053 58 282 0.0 7.0 0.00 0.00 0.00 74 1019.9
20260905054554 58 274 1.0 7.0 0.00 0.00 0.00 74 1019.8
20260905054053 58 189 1.0 6.0 0.00 0.00 0.00 73 1019.9
20260905053553 58 236 2.0 7.0 0.00 0.00 0.00 73 1019.8
20260905053056 58 205 0.0 6.0 0.00 0.00 0.00 73 1019.8
20260905052553 58 195 1.0 7.0 0.00 0.00 0.00 73 1019.9
20260905052053 58 224 1.0 7.0 0.00 0.00 0.00 72 1019.9
20260905051655 58 209 1.0 6.0 0.00 0.00 0.00 72 1019.9
20260905051053 58 200 2.0 6.0 0.00 0.00 0.00 72 1019.9
20260905050553 58 186 2.0 6.0 0.00 0.00 0.00 72 1020.0
20260905050053 58 184 1.0 8.0 0.00 0.00 0.00 72 1020.0
20260905045555 58 203 3.0 9.0 0.00 0.00 0.00 72 1019.9
20260905045052 58 206 3.0 10.0 0.00 0.00 0.00 72 1020.0
20260905044553 58 209 3.0 10.0 0.00 0.00 0.00 71 1019.9
20260905044055 58 274 2.0 9.0 0.00 0.00 0.00 72 1019.9
20260905043555 59 213 1.0 8.0 0.00 0.00 0.00 72 1019.8
20260905043112 59 192 4.0 9.0 0.00 0.00 0.00 71 1019.8
20260905042551 59 234 3.0 9.0 0.00 0.00 0.00 71 1019.7
20260905042052 59 188 3.0 10.0 0.00 0.00 0.00 71 1019.6
20260905041653 59 220 3.0 11.0 0.00 0.00 0.00 70 1019.6
20260905041049 59 189 2.0 11.0 0.00 0.00 0.00 70 1019.5
20260905040549 60 182 4.0 12.0 0.00 0.00 0.00 70 1019.5
20260905040113 60 218 4.0 12.0 0.00 0.00 0.00 70 1019.4
20260905035550 60 201 5.0 13.0 0.00 0.00 0.00 70 1019.3
20260905035049 60 182 4.0 11.0 0.00 0.00 0.00 70 1019.2
20260905034549 60 182 3.0 12.0 0.00 0.00 0.00 69 1019.2
20260905034052 60 146 4.0 12.0 0.00 0.00 0.00 69 1019.1
20260905033549 61 244 4.0 14.0 0.00 0.00 0.00 68 1019.0
20260905033053 61 214 4.0 14.0 0.00 0.00 0.00 68 1018.9
20260905032549 61 179 6.0 12.0 0.00 0.00 0.00 68 1018.9
20260905032048 61 194 6.0 12.0 0.00 0.00 0.00 67 1018.9
20260905031650 62 207 4.0 11.0 0.00 0.00 0.00 66 1018.8
20260905031048 62 195 4.0 12.0 0.00 0.00 0.00 65 1018.8
20260905030548 62 180 2.0 13.0 0.00 0.00 0.00 66 1018.8
20260905030048 62 247 5.0 13.0 0.00 0.00 0.00 65 1018.8
20260905025549 63 233 6.0 12.0 0.00 0.00 0.00 64 1018.7
20260905025050 63 200 2.0 9.0 0.00 0.00 0.00 63 1018.7
20260905024548 63 275 2.0 10.0 0.00 0.00 0.00 63 1018.6
20260905024047 64 163 2.0 7.0 0.00 0.00 0.00 63 1018.6
20260905023550 64 264 0.0 11.0 0.00 0.00 0.00 64 1018.6
20260905023053 65 303 1.0 11.0 0.00 0.00 0.00 61 1018.7
20260905022547 65 211 1.0 20.0 0.00 0.00 0.00 61 1018.6
20260905022047 65 168 2.0 20.0 0.00 0.00 0.00 59 1018.6
20260905021648 66 176 2.0 13.0 0.00 0.00 0.00 58 1018.5
20260905021055 66 208 2.0 13.0 0.00 0.01 0.00 57 1018.5
20260905020555 66 317 1.0 11.0 0.00 0.01 0.00 56 1018.5
20260905020055 67 227 3.0 18.0 0.00 0.01 0.00 54 1018.5
20260905015554 68 296 3.0 18.0 0.00 0.01 0.00 51 1018.4
20260905015058 68 288 0.0 12.0 0.00 0.01 0.00 48 1018.4
20260905014554 68 226 1.0 8.0 0.00 0.01 0.00 46 1018.3
20260905014055 69 283 0.0 4.0 0.00 0.01 0.00 44 1018.4
20260905013555 69 308 0.0 9.0 0.00 0.01 0.00 43 1018.4
20260905013100 69 243 1.0 9.0 0.00 0.01 0.00 43 1018.4
20260905012557 69 332 1.0 6.0 0.00 0.01 0.00 43 1018.3
20260905012056 69 308 0.0 6.0 0.00 0.01 0.00 41 1018.3
20260905011655 69 284 0.0 3.0 0.00 0.01 0.00 42 1018.3
20260905011047 69 199 0.0 7.0 0.00 0.02 0.00 43 1018.3
20260905010547 69 290 0.0 7.0 0.00 0.02 0.00 42 1018.3
20260905010051 69 296 0.0 7.0 0.00 0.02 0.00 42 1018.3
20260905005546 69 288 1.0 7.0 0.00 0.02 0.00 41 1018.3
20260905005046 69 330 0.0 6.0 0.00 0.02 0.00 41 1018.3
20260905004547 69 299 1.0 7.0 0.00 0.02 0.00 40 1018.3
20260905004046 70 312 1.0 7.0 0.00 0.02 0.00 40 1018.4
20260905003550 70 324 1.0 8.0 0.00 0.02 0.00 40 1018.3
20260905003046 70 306 2.0 8.0 0.00 0.02 0.00 40 1018.3
20260905002548 71 320 0.0 4.0 0.00 0.02 0.00 39 1018.4
20260905002051 71 313 0.0 4.0 0.00 0.02 0.00 38 1018.4
20260905001646 70 273 0.0 5.0 0.00 0.02 0.00 39 1018.3
20260905001045 70 275 0.0 8.0 0.00 0.08 0.00 38 1018.4
20260905000546 70 293 1.0 8.0 0.00 0.08 0.00 38 1018.4
20260905000046 70 313 0.0 5.0 0.00 0.08 0.00 38 1018.4
20260904235546 70 305 0.0 7.0 0.00 0.08 0.00 37 1018.4
20260904235049 71 308 1.0 7.0 0.00 0.08 0.00 36 1018.5
20260904234547 71 343 0.0 6.0 0.00 0.08 0.00 36 1018.5
20260904234045 71 313 1.0 6.0 0.00 0.08 0.00 36 1018.5
20260904233545 71 321 0.0 6.0 0.00 0.08 0.00 36 1018.5
20260904233045 71 313 0.0 7.0 0.00 0.08 0.00 36 1018.6
20260904232545 71 304 1.0 7.0 0.00 0.08 0.00 34 1018.6
20260904232045 72 335 0.0 9.0 0.00 0.08 0.00 33 1018.6
20260904231645 73 313 0.0 4.0 0.00 0.08 0.00 32 1018.6
20260904231045 72 269 0.0 5.0 0.00 0.08 0.00 33 1018.7
20260904230544 72 257 0.0 5.0 0.00 0.08 0.00 33 1018.7
20260904230044 72 315 0.0 5.0 0.00 0.08 0.00 36 1018.7
20260904225544 71 265 0.0 5.0 0.00 0.08 0.00 36 1018.7
20260904225042 70 273 0.0 5.0 0.00 0.08 0.00 37 1018.8
20260904224543 70 283 1.0 5.0 0.00 0.08 0.00 36 1018.8
20260904224042 70 345 0.0 6.0 0.00 0.08 0.00 37 1018.8
20260904223547 70 322 2.0 6.0 0.00 0.08 0.00 38 1018.9
20260904223040 70 313 1.0 8.0 0.00 0.08 0.00 38 1019.0
20260904222541 70 319 1.0 8.0 0.00 0.08 0.00 38 1019.0
20260904222044 70 298 2.0 7.0 0.00 0.08 0.00 39 1019.0
20260904221641 70 283 0.0 7.0 0.00 0.08 0.00 41 1019.1
20260904221037 70 302 0.0 7.0 0.00 0.08 0.00 41 1019.1
20260904220537 70 263 1.0 7.0 0.00 0.08 0.00 41 1019.1
20260904220055 69 199 2.0 7.0 0.00 0.08 0.00 39 1019.2
20260904215536 70 328 2.0 7.0 0.00 0.08 0.00 40 1019.2
20260904215037 69 292 0.0 5.0 0.00 0.08 0.00 43 1019.3
20260904214539 69 286 0.0 7.0 0.00 0.08 0.00 42 1019.3
20260904214036 69 313 0.0 7.0 0.00 0.08 0.00 45 1019.3
20260904213538 69 304 1.0 9.0 0.00 0.08 0.00 46 1019.3
20260904213036 68 319 1.0 9.0 0.00 0.08 0.00 45 1019.4
20260904212536 69 307 1.0 10.0 0.00 0.08 0.00 45 1019.4
20260904212036 69 294 2.0 7.0 0.00 0.08 0.00 46 1019.4
20260904211636 69 306 1.0 7.0 0.00 0.08 0.00 46 1019.4
20260904211040 69 316 1.0 7.0 0.00 0.08 0.00 46 1019.4
20260904210536 69 342 1.0 6.0 0.00 0.08 0.00 45 1019.3
20260904210044 69 264 0.0 8.0 0.00 0.08 0.00 47 1019.3
20260904205536 69 289 2.0 8.0 0.00 0.08 0.00 46 1019.3
20260904205040 69 263 0.0 6.0 0.00 0.08 0.00 44 1019.4
20260904204538 70 346 0.0 5.0 0.00 0.08 0.00 45 1019.4
20260904204035 70 267 0.0 5.0 0.00 0.08 0.00 43 1019.4
20260904203535 71 255 0.0 2.0 0.00 0.08 0.00 42 1019.5
20260904203047 70 211 0.0 1.0 0.00 0.08 0.00 45 1019.5
20260904202532 69 211 0.0 3.0 0.00 0.08 0.00 46 1019.5
20260904202031 68 232 0.0 3.0 0.00 0.08 0.00 46 1019.5
20260904201630 67 280 0.0 4.0 0.00 0.08 0.00 44 1019.5
20260904201030 67 281 0.0 4.0 0.00 0.08 0.00 45 1019.6
20260904200532 67 280 0.0 5.0 0.00 0.08 0.00 47 1019.6
20260904200030 67 301 1.0 6.0 0.00 0.08 0.00 50 1019.6
20260904195531 67 282 0.0 6.0 0.00 0.08 0.00 47 1019.7
20260904195026 67 327 0.0 5.0 0.00 0.08 0.00 50 1019.7
20260904194527 66 278 0.0 5.0 0.00 0.08 0.00 51 1019.7
20260904194028 65 276 0.0 8.0 0.00 0.08 0.00 52 1019.7
20260904193531 64 326 1.0 8.0 0.00 0.08 0.00 52 1019.7
20260904193025 64 277 0.0 9.0 0.00 0.08 0.00 53 1019.7
20260904192524 64 311 1.0 9.0 0.00 0.08 0.00 52 1019.7
20260904192024 64 290 2.0 7.0 0.00 0.08 0.00 51 1019.8
20260904191625 63 307 2.0 9.0 0.00 0.08 0.00 53 1019.8
20260904191024 63 299 2.0 7.0 0.00 0.08 0.00 55 1019.9
20260904190524 63 265 0.0 7.0 0.00 0.08 0.00 55 1019.8
20260904190023 64 303 1.0 6.0 0.00 0.08 0.00 54 1019.9
20260904185525 64 286 1.0 6.0 0.00 0.08 0.00 53 1019.8
20260904185023 64 281 0.0 6.0 0.00 0.08 0.00 53 1019.9
20260904184527 65 316 1.0 6.0 0.00 0.08 0.00 52 1019.9
20260904184023 65 335 0.0 4.0 0.00 0.08 0.00 52 1019.9
20260904183523 65 297 0.0 4.0 0.00 0.08 0.00 49 1019.9
20260904183021 64 255 0.0 1.0 0.00 0.08 0.00 53 1019.9
20260904182519 63 279 0.0 1.0 0.00 0.08 0.00 56 1019.9
20260904182023 63 281 0.0 3.0 0.00 0.08 0.00 58 1019.9
20260904181618 62 278 0.0 3.0 0.00 0.08 0.00 59 1020.0
20260904181017 62 282 0.0 3.0 0.00 0.08 0.00 59 1020.0
20260904180516 61 238 0.0 4.0 0.00 0.08 0.00 59 1020.0
20260904180017 61 302 0.0 6.0 0.00 0.08 0.00 62 1020.0
20260904175517 61 301 0.0 6.0 0.00 0.08 0.00 61 1020.1
20260904175013 60 236 0.0 5.0 0.00 0.08 0.00 66 1020.0
20260904174513 60 276 0.0 6.0 0.00 0.08 0.00 67 1020.0
20260904174012 59 283 0.0 6.0 0.00 0.08 0.00 68 1020.0
20260904173510 59 282 0.0 5.0 0.00 0.08 0.00 71 1019.9
20260904173027 58 257 0.0 7.0 0.00 0.08 0.00 72 1019.9
20260904172508 58 267 1.0 7.0 0.00 0.08 0.00 74 1019.8
20260904172007 57 306 1.0 6.0 0.00 0.08 0.00 76 1019.8
20260904171607 57 286 1.0 8.0 0.00 0.08 0.00 76 1019.8
20260904171004 57 253 0.0 8.0 0.00 0.08 0.00 77 1019.7
20260904170507 57 253 0.0 9.0 0.00 0.08 0.00 77 1019.7
20260904170011 57 302 0.0 9.0 0.00 0.08 0.00 78 1019.7
20260904165504 57 291 1.0 6.0 0.00 0.08 0.00 76 1019.7
20260904165004 57 286 1.0 6.0 0.00 0.08 0.00 74 1019.7
20260904164504 57 269 0.0 7.0 0.00 0.08 0.00 75 1019.6
20260904164002 57 258 0.0 4.0 0.00 0.08 0.00 77 1019.5
20260904163503 56 277 0.0 8.0 0.00 0.08 0.00 79 1019.6